AO-07 1 07530U 74089B 26253.53954053 -.00000025 00000-0 13363-3 0 9992 2 07530 101.9922 267.6787 0012075 329.9151 150.1950 12.53699558371217 UO-11 1 14781U 84021B 26253.45828132 .00001123 00000-0 11928-3 0 9998 2 14781 97.8161 218.1351 0006029 261.1183 98.9353 14.90981024269838 LO-19 1 20442U 90005G 26253.57814215 .00000056 00000-0 36791-4 0 9998 2 20442 98.8828 277.7264 0010781 319.8940 40.1447 14.34142954914633 AO-27 1 22825U 93061C 26252.74699361 .00000044 00000-0 33612-4 0 9997 2 22825 98.6805 320.0975 0007882 205.1990 154.8810 14.30960173719091 FO-29 1 24278U 96046B 26253.40779650 -.00000019 00000-0 18203-4 0 9993 2 24278 98.5172 90.5969 0349028 235.1857 121.5987 13.53277796484696 GO-32 1 25397U 98043D 26253.54967274 .00000030 00000-0 33348-4 0 9990 2 25397 99.0148 248.4916 0001240 22.6578 337.4655 14.24442144463488 ISS 1 25544U 98067A 26253.46606356 .00004975 00000-0 98181-4 0 9990 2 25544 51.6301 238.0248 0004990 125.6916 234.4537 15.49068968584974 NO-44 1 26931U 01043C 26253.50956612 .00000053 00000-0 50719-4 0 9995 2 26931 67.0523 23.5825 0005727 272.0806 87.9641 14.31982408302669 SO-50 1 27607U 02058C 26253.65485523 .00000670 00000-0 96660-4 0 9997 2 27607 64.5511 224.5159 0072222 246.8033 112.5455 14.83203996277133 CO-55 1 27844U 03031E 26253.52754362 .00000192 00000-0 10190-3 0 9990 2 27844 98.6771 261.0269 0008527 301.9536 58.0813 14.24379231203826 RS-22 1 27939U 03042A 26253.71713963 .00000812 00000-0 13291-3 0 9994 2 27939 98.3480 80.5161 0011430 4.1192 126.4448 14.73594950228144 CO-65 1 32785U 08021C 26253.67736572 .00003252 00000-0 20340-3 0 9991 2 32785 97.8367 236.9608 0010583 96.6291 263.6142 15.10132605998094 CO-66 1 32791U 08021J 26253.51667382 .00014570 00000-0 42545-3 0 9999 2 32791 97.7559 255.6889 0003530 50.0689 310.0863 15.35426673 360 RS-30 1 32953U 08025A 26253.56621277 .00000033 00000-0 16161-3 0 9995 2 32953 82.5039 302.3411 0020627 123.9945 236.3098 12.43182625830304 SRMSAT 1 37841U 11058D 26252.71345689 .00000358 00000-0 50331-4 0 9990 2 37841 19.9714 267.8439 0011956 54.6311 103.2680 14.11591337769778 ZACUBE-1 1 39417U 13066B 26253.64523051 .00004136 00000-0 31699-3 0 9999 2 39417 97.8120 216.4144 0040255 327.3715 32.5022 15.01771416693554 Delfi-N3xt 1 39428U 13066N 26253.34999215 .00004483 00000-0 38475-3 0 9991 2 39428 97.8302 173.6166 0071242 283.8088 75.5212 14.96048226687353 GOMX-1 1 39430U 13066Q 26253.70474936 .00001699 00000-0 25907-3 0 9994 2 39430 97.6442 88.7781 0128272 162.0140 198.5668 14.69682898682479 LO-74 1 39440U 13066AA 26253.58950159 .00002453 00000-0 22677-3 0 9997 2 39440 97.8970 202.9896 0058453 103.6969 257.0767 14.94239279689745 AO-73 1 39444U 13066AE 26253.47355020 .00005821 00000-0 35245-3 0 9992 2 39444 97.8368 226.8084 0033604 273.6737 86.0649 15.10543121692539 DTUSAT-2 1 40030U 14033W 26253.54295178 .00005021 00000-0 26540-3 0 9995 2 40030 98.0911 256.7779 0006348 312.8095 47.2602 15.15976161665616 LILACSAT-2 1 40908U 15049K 26253.72154997 .00015847 00000-0 24515-3 0 9997 2 40908 97.4569 293.9437 0004628 307.7375 52.3459 15.54150142609025 Lapan A3 1 41603U 16040E 26253.74586168 .00002510 00000-0 79520-4 0 9993 2 41603 97.1559 247.1409 0012037 72.1166 288.1388 15.33572849567929 CAS-2T 1 41847U 16066G 26252.79983509 .00000673 00000-0 10419-3 0 9994 2 41847 98.3760 327.5635 0340276 232.6638 124.3103 14.44832902517017 TechnoSat 1 42829U 17042E 26253.67515902 .00001752 00000-0 12599-3 0 9996 2 42829 97.4389 48.1630 0018074 157.0973 203.1063 15.05379214499566 AO-91 1 43017U 17073E 26253.57479412 .00007337 00000-0 31139-3 0 9990 2 43017 97.4566 119.0460 0148417 34.0306 327.0335 15.13846776478309 S-Net D 1 43186U 18014G 26253.48480824 .00003979 00000-0 20259-3 0 9991 2 43186 97.5262 157.7378 0009897 83.9135 276.3226 15.17345620471694 S-Net B 1 43187U 18014H 26253.30015024 .00003878 00000-0 19772-3 0 9995 2 43187 97.5269 157.5433 0010483 80.4395 279.8022 15.17312543471662 S-Net A 1 43188U 18014J 26253.28538171 .00004177 00000-0 21241-3 0 9993 2 43188 97.5278 157.7540 0010395 81.2620 278.9791 15.17353027471661 S-Net C 1 43189U 18014K 26252.97480378 .00003924 00000-0 20003-3 0 9998 2 43189 97.5295 157.5330 0011706 75.6553 284.5979 15.17300397470162 Ten-Koh 1 43677U 18084G 26253.53391962 .00001175 00000-0 91645-4 0 9997 2 43677 98.0745 89.5080 0009192 181.1235 178.9970 15.03234911428985 PO-101 1 43678U 18084H 26253.72172694 .00001536 00000-0 12635-3 0 9990 2 43678 98.1183 93.6960 0011219 241.9837 118.0251 15.00717213429045 QO-100 1 43700U 18090A 26253.51734287 .00000125 00000-0 00000+0 0 9994 2 43700 0.0186 139.6568 0002553 65.1771 356.7462 1.00272678 28535 MinXSS-2 1 43758U 18099A 26253.44606382 .00041256 00000-0 66234-3 0 9997 2 43758 97.4465 332.5687 0005008 310.7757 49.3061 15.52922876427330 AO-95 1 43770U 18099N 26252.71276228 .00009093 00000-0 33186-3 0 9995 2 43770 97.4308 312.7060 0009470 56.8709 303.3438 15.28322584426127 SNUSat 2 1 43782U 18099AA 26253.38341395 .00006150 00000-0 26433-3 0 9998 2 43782 97.3981 305.4883 0009819 6.5231 353.6132 15.22981288425996 SnugLite 1 43784U 18099AC 26253.40689002 .00009134 00000-0 32905-3 0 9999 2 43784 97.3791 306.9085 0002665 24.6011 335.5356 15.28782744426334 ITASat 1 1 43786U 18099AE 26252.70732570 .00005169 00000-0 24280-3 0 9993 2 43786 97.3952 302.5489 0013675 61.7598 298.5016 15.19969198425745 EAGLET 1 1 43790U 18099AJ 26253.35554313 .00003261 00000-0 18552-3 0 9993 2 43790 97.4155 300.7621 0012330 56.6127 303.6282 15.13483366425219 ESEO 1 43792U 18099AL 26253.58619613 .00001450 00000-0 10766-3 0 9992 2 43792 97.3907 287.3011 0012904 46.5322 313.6975 15.04453503424646 JO-97 1 43803U 18099AX 26252.71469732 .00013709 00000-0 39115-3 0 9993 2 43803 97.4057 315.9566 0004411 342.9441 17.1654 15.36153461426599 Suomi 100 1 43804U 18099AY 26252.67675792 .00009258 00000-0 31914-3 0 9997 2 43804 97.4110 312.8246 0008880 350.3416 9.7652 15.30190951426336 ISAT 1 43879U 18111D 26253.58078525 .00376819 56459-4 11226-2 0 9992 2 43879 97.5795 196.7406 0007461 125.5259 234.6712 15.92371773424612 UWE-4 1 43880U 18111E 26253.30971104 .00036849 00000-0 62479-3 0 9999 2 43880 97.5815 185.9480 0007960 37.2123 322.9679 15.51396053423954 Prox-1 1 44339U 19036A 26253.42244918 .00010699 00000-0 99153-3 0 9999 2 44339 23.9937 264.0647 0004911 306.1831 53.8215 14.92394805386213 Taurus 1 1 44530U 19059C 26253.72674713 .00003787 00000-0 59982-3 0 9996 2 44530 98.6489 63.9581 0009147 48.2241 311.9745 14.72854871371239 TO-108 1 44881U 19093C 26253.52844111 .00000109 00000-0 18262-4 0 9994 2 44881 97.7470 323.6521 0013719 160.0612 200.1143 14.86626349364092 RS-44 1 44909U 19096E 26253.53336713 .00000035 00000-0 10316-3 0 9992 2 44909 82.5179 282.9972 0216528 305.0073 53.0873 12.79749247313264 SALSAT 1 46495U 20068K 26253.54002311 .00005592 00000-0 19011-3 0 9994 2 46495 97.8883 261.8891 0009629 13.9048 346.2455 15.30868503328415 CSS (TIANHE-1) 1 48274U 21035A 26253.67911086 .00018080 00000-0 22270-3 0 9995 2 48274 41.4685 162.9751 0002554 269.7151 90.3395 15.59787044306517 TeikyoSat 4 1 49396U 21102B 26253.36056913 .00001436 00000-0 92631-4 0 9997 2 49396 97.3636 279.5286 0012095 8.2141 351.9285 15.09760320265570 Z-Sat 1 49399U 21102E 26253.72848556 .00000891 00000-0 45905-4 0 9998 2 49399 97.3276 286.4615 0015026 313.3541 46.6441 15.18824173266421 KOSEN 1 1 49402U 21102H 26253.37478486 .00005606 00000-0 20827-3 0 9999 2 49402 97.3118 293.9070 0011512 264.6943 95.2983 15.27886489267025 HO-113 1 50466U 21131B 26253.57700297 .00000276 00000-0 98720-4 0 9999 2 50466 98.4977 345.5021 0003830 185.1679 174.9471 14.41421975247417 SNUGLITE 2 1 52899U 22065F 26253.37183968 .00000649 00000-0 13172-3 0 9997 2 52899 98.2325 38.1172 0008636 113.3547 246.8565 14.64478740223461 UmKA 1 (RS40S) 1 57172U 23091G 26253.53880920 .00004186 00000-0 18806-3 0 9995 2 57172 97.4971 311.9184 0012645 174.2219 185.9165 15.21637054176982 CubeBel-2 (EU11S) 1 57175U 23091K 26253.65710049 .00009377 00000-0 31520-3 0 9990 2 57175 97.4973 317.7152 0009879 163.5818 196.5744 15.31000982177377 RS-38S 1 57189U 23091Z 26253.61360772 .00014252 00000-0 37680-3 0 9996 2 57189 97.5022 324.9304 0008055 121.0137 239.1900 15.38495061177815 SONATE-2 1 59112U 24043Q 26253.40736012 .00048410 00000-0 48390-3 0 9996 2 59112 97.5606 49.5142 0005210 241.9653 118.1079 15.65452036141196 GRBBeta 1 60237U 24128C 26253.42210795 .00002254 00000-0 16227-3 0 9997 2 60237 61.9885 277.0990 0028241 153.3649 206.8903 15.07151968119113 Curium One 1 60242U 24128H 26253.35585172 .00004884 00000-0 28098-3 0 9999 2 60242 61.9764 263.8666 0027186 148.4803 211.7929 15.13573158119346 ROBUSTA-3A 1 60243U 24128J 26253.37005037 .00003973 00000-0 23655-3 0 9991 2 60243 61.9844 266.7716 0029181 145.5407 214.7588 15.12676377119305 CatSat 1 60246U 24125J 26253.53867951 .00087782 00000-0 70018-3 0 9995 2 60246 97.1963 107.8262 0015041 214.0657 145.9642 15.70733635120731 AO-123 1 61781U 24199AY 26253.68899950 .00006326 00000-0 17771-3 0 9993 2 61781 97.2857 121.5949 0013622 9.6806 350.4698 15.36790470147051 LASARsat 1 62391U 24247Q 26252.13773078 .00044343 00000-0 73022-3 0 9998 2 62391 44.9723 148.6226 0008259 164.8391 195.2750 15.51644049 96336 CroCube 1 62394U 24247T 26252.39610547 .00043680 00000-0 64912-3 0 9991 2 62394 44.9697 142.8132 0008944 177.1117 182.9829 15.54481968 96427 JINJUSat 1B 1 63210U 25052A 26252.70989729 .00013224 00000-0 38006-3 0 9996 2 63210 97.3882 149.6737 0004747 119.9632 240.2083 15.35930935 83060 NUSHSAT 1 1 63211U 25052B 26253.44490664 .00019019 00000-0 49216-3 0 9997 2 63211 97.3858 151.3114 0004496 119.4653 240.7041 15.39109962 83243 TEVEL2-4 1 63213U 25052D 26253.26200846 .00016486 00000-0 45149-3 0 9996 2 63213 97.3776 149.9094 0003797 128.2607 231.8979 15.37392194 83176 TEVEL2-5 1 63214U 25052E 26252.64237562 .00015350 00000-0 42392-3 0 9999 2 63214 97.3776 149.2086 0003608 130.0125 230.1437 15.37148149 83077 TEVEL2-6 1 63215U 25052F 26252.65659895 .00015303 00000-0 42304-3 0 9999 2 63215 97.3777 149.2078 0003525 129.8396 230.3159 15.37117262 83079 TEVEL2-1 1 63217U 25052H 26253.43411845 .00015486 00000-0 43656-3 0 9992 2 63217 97.3753 149.5043 0003413 141.0768 219.0722 15.36505913 83179 TEVEL2-3 1 63218U 25052J 26252.64363640 .00014895 00000-0 41933-3 0 9993 2 63218 97.3756 148.7466 0003087 138.5755 221.5723 15.36555936 83053 TEVEL2-2 1 63219U 25052K 26252.65227583 .00014410 00000-0 40661-3 0 9990 2 63219 97.3754 148.7242 0003303 142.4053 217.7422 15.36492914 83059 TEVEL2-9 1 63237U 25052AD 26253.26637454 .00014094 00000-0 42622-3 0 9997 2 63237 97.3811 148.5172 0005642 177.0387 183.0890 15.34306248 83062 TEVEL2-7 1 63238U 25052AE 26253.26015976 .00013298 00000-0 40695-3 0 9990 2 63238 97.3813 148.3878 0005535 178.8508 181.2749 15.33944486 83054 TEVEL2-8 1 63239U 25052AF 26252.68202349 .00013040 00000-0 39943-3 0 9997 2 63239 97.3818 147.7833 0005510 180.5846 179.5392 15.33918795 82969 SPIRONE 1 66657U 25274H 26253.53251699 .00001342 00000-0 13160-3 0 9992 2 66657 97.7476 181.6170 0013610 89.9939 270.2841 14.93828347 42968 K-HERO 1 66660U 25274L 26253.51400993 .00001021 00000-0 10042-3 0 9997 2 66660 97.7484 181.8216 0015474 93.6805 266.6185 14.94225263 42978 SNUGLITE-III DURI 1 66661U 25274M 26253.36652626 .00001343 00000-0 13032-3 0 9992 2 66661 97.7482 181.6965 0016124 95.1023 265.2038 14.94234957 42958 SAKHACUBE-CHOLBON 1 67290U 25313AU 26252.96919934 .00008079 00000-0 31418-3 0 9999 2 67290 97.3874 326.9948 0010220 62.7879 297.4400 15.26247707 38906 RS95S (QMR-KWT-2) 1 67291U 25313AV 26253.45128966 .00011329 00000-0 41299-3 0 9992 2 67291 97.3873 327.8648 0009532 59.4358 300.7821 15.28296813 39003 Ten-Koh2 1 68261U 25241B 26253.30856227 .00004189 00000-0 17981-3 0 9999 2 68261 51.6623 274.2106 0007985 65.5939 294.5872 15.24830422 27890 JACK-002 1 68417U 26067B 26253.42082078 .00005418 00000-0 25246-3 0 9996 2 68417 97.4654 211.0533 0002322 34.8678 325.2709 15.20311297 24895 DISCO 2 1 68431U 26067R 26253.45373196 .00005890 00000-0 27496-3 0 9992 2 68431 97.4686 211.0849 0004057 72.3944 287.7734 15.20203274 24891 HADES-SA (SpinnyONE) 1 68446U 26067AG 26253.38469220 .00015215 00000-0 67404-3 0 9999 2 68446 97.4477 210.6033 0008369 125.1666 235.0355 15.21693897 24871 PARUS-6U1 1 68456U 26067AS 26253.42519061 .00004587 00000-0 22693-3 0 9995 2 68456 97.4640 210.5643 0007157 118.1724 242.0233 15.18289533 24867 SAL-E 1 68458U 26067AU 26253.59615574 .00005185 00000-0 25210-3 0 9994 2 68458 97.4563 210.6346 0007306 124.5468 235.6457 15.18827712 24892 FSI-SAT 2 1 68792U 26088A 26253.40164031 .00003209 00000-0 21554-3 0 9997 2 68792 97.5187 40.6167 0014481 169.9637 190.1883 15.07410716 21122 OrigamiSat 2 1 68795U 26088D 26253.40426381 .00009684 00000-0 59064-3 0 9999 2 68795 97.5174 41.0694 0015485 142.6991 217.5317 15.10444206 21151 ARICA 2 1 68796U 26088E 26253.38655485 .00002896 00000-0 18661-3 0 9992 2 68796 97.5175 40.9256 0016353 142.3804 217.8572 15.09005973 21147 WASEDA-SAT-ZERO-II 1 68797U 26088F 26253.36319234 .00005641 00000-0 35516-3 0 9999 2 68797 97.5169 40.9505 0016038 142.5692 217.6657 15.09467389 21140 MANGARO-II-Piscus 1 68798U 26088G 26253.42069931 .00003529 00000-0 22442-3 0 9990 2 68798 97.5187 41.0475 0019668 145.5779 214.6729 15.09303162 21156 CO-128 1 69912U 26156AV 26252.97539859 .00000934 00000-0 10021-3 0 9992 2 69912 97.7482 152.2754 0001208 318.8425 41.2702 14.90932174 9638 MARINA 1 69920U 26156BD 26253.46086156 .00001680 00000-0 17060-3 0 9992 2 69920 97.7449 152.8453 0006200 307.0994 52.9658 14.92148036 9716 IO-86 1 40931U 26199.45381863 .00000000 00000-0 77536-4 0 07 2 40931 6.0006 322.6653 0012733 338.8432 273.6875 14.79294310 03 LILIUM-4
